[[{"header":{"parameterUnit":"m.s-1","parameterCategory":2,"la1":30.2991,"la2":30.254,"lo1":-89.0895,"lo2":-89.0444,"dy":0.0017,"dx":0.0017,"nx":28,"ny":28,"refTime":"2023-08-28T21:00:00:Z","depth":"0","parameterNumber":2,"parameterNumberName":"U-component_of_CURRENTS"},"data":[0,0,0,0,0,0,0,0,0,0,0,0,0,0,0,0,0,0,0,0,0,0,0,0,0,0,0,0,0,0,0,0,0,0,0,0,0,0,0,0,0,0,0,0,0,0,0,0,0,0,0,0,0,0,0,0,0,0,0.2216,0.2216,0,0.2277,0.2277,0.2278,0.2301,0.2301,0.23,0.23,0.2302,0.2302,0.2302,0,0,0,0,0,0,0,0,0,0,0,0,0,0.2142,0.2143,0.2215,0.2216,0.2217,0.2277,0.2278,0.2278,0.2301,0.2301,0.23,0.23,0.2302,0.2302,0.2302,0,0,0,0,0,0,0,0,0,0,0,0,0,0.2185,0.2143,0.2215,0.2236,0.2239,0.2277,0.2278,0.2278,0.2301,0.2301,0.23,0.23,0.2302,0.2302,0.2302,0.2308,0,0,0.2303,0.2303,0,0,0,0,0,0,0,0,0.2182,0.2187,0.2232,0.2235,0.2238,0.2282,0.2252,0.2286,0.2301,0.2276,0.23,0.23,0.229,0.2291,0.2303,0.2308,0.2308,0.2303,0.2303,0.2303,0.2303,0,0,0,0,0,0,0,0.2179,0.2185,0.2239,0.2233,0.2237,0.2251,0.2256,0.2259,0.2282,0.2278,0.228,0.2289,0.2291,0.2303,0.2303,0.2308,0.2303,0.2303,0.2303,0.2304,0.2363,0.2365,0,0,0,0,0,0,0.2173,0.2182,0.2237,0.2241,0.221,0.2252,0.2258,0.2267,0.2283,0.2286,0.2289,0.2289,0.2303,0.2303,0.2303,0.2337,0.2303,0.2304,0.2304,0.2362,0.2364,0.2365,0,0,0,0,0,0,0.2171,0.2177,0.2235,0.2213,0.2222,0.2254,0.2263,0.2268,0.2283,0.2292,0.2293,0.2298,0.2302,0.2303,0.2321,0.2336,0.2304,0.2304,0.236,0.2362,0.2364,0.2387,0,0,0,0,0,0,0.2168,0.2176,0.2179,0.2213,0.2223,0.2261,0.2264,0.227,0.2288,0.229,0.23,0.23,0.2302,0.232,0.2321,0.2336,0.2304,0.2358,0.2361,0.2364,0.2384,0.239,0.2394,0,0,0,0,0,0.2165,0.2173,0.2179,0.2185,0.2226,0.2262,0.2268,0.2289,0.2289,0.23,0.2313,0.23,0.2338,0.2322,0.2322,0.2337,0.2357,0.236,0.2364,0.2382,0.2389,0.2394,0,0,0,0,0,0,0.2142,0.2177,0.2184,0.2201,0.223,0.2266,0.2277,0.229,0.231,0.2308,0.2313,0.2315,0.2342,0.2338,0.232,0.2366,0.2347,0.2351,0.2361,0.2367,0.2372,0.2369,0.2304,0,0,0,0,0,0.2139,0.2153,0.2189,0.2202,0.2215,0.2245,0.226,0.2276,0.2299,0.2308,0.2318,0.2332,0.2356,0.2359,0.2377,0.2392,0.2414,0.2405,0.241,0.2414,0.2415,0.2439,0.2445,0.2376,0.2376,0.2376,0,0,0.2134,0.2153,0.2162,0.2198,0.2219,0.2248,0.2254,0.228,0.2305,0.2303,0.2334,0.2349,0.2367,0.2396,0.2406,0.2391,0.246,0.2418,0.2421,0.242,0.2443,0.2449,0.2455,0.2378,0.2378,0.2377,0,0,0.2135,0.2148,0.2163,0.219,0.2224,0.2246,0.2254,0.2292,0.2309,0.2342,0.2355,0.238,0.2404,0.2426,0.2439,0.2479,0.2489,0.2485,0.2497,0.2521,0.2527,0.2531,0.2625,0.2638,0.248,0.248,0.248,0,0.2123,0.2149,0.2173,0.2198,0.2218,0.2246,0.227,0.23,0.2339,0.2355,0.2353,0.2411,0.2422,0.2464,0.2485,0.2488,0.2523,0.247,0.2526,0.2531,0.2535,0.2629,0.2643,0.2482,0.2481,0.2481,0.2481,0,0.2142,0.2163,0.2174,0.2214,0.2241,0.2264,0.2308,0.2334,0.2353,0.2381,0.2425,0.2448,0.2479,0.2493,0.2501,0.2544,0.2571,0.2533,0.2505,0.2543,0.2641,0.2655,0.2484,0.2483,0.2483,0.2482,0,0,0.2106,0.2172,0.2174,0.2194,0.2248,0.227,0.2317,0.2363,0.2392,0.2427,0.2464,0.2509,0.2517,0.2533,0.2546,0.2566,0.2651,0.2562,0.2563,0.2648,0.276,0.2809,0.2829,0.2611,0.2613,0.2614,0.2836,0,0.2106,0.2149,0.2185,0.2224,0.225,0.2292,0.2332,0.2379,0.242,0.2466,0.2496,0.2539,0.2535,0.2553,0.2574,0.2636,0.268,0.2598,0.2717,0.2722,0.2752,0.2842,0.2775,0.2967,0.2849,0.2851,0.2853,0,0.2107,0.2137,0.2174,0.2229,0.2243,0.227,0.233,0.2374,0.2449,0.2482,0.2525,0.2557,0.2627,0.2593,0.2718,0.2666,0.2716,0.2755,0.2763,0.2802,0.2794,0.2901,0.2997,0.2922,0.2874,0.2873,0.2871,0,0.2065,0.2123,0.2148,0.2169,0.224,0.2258,0.2296,0.2371,0.2426,0.2496,0.2553,0.2609,0.2685,0.2719,0.2832,0.2771,0.2977,0.2897,0.2998,0.3005,0.2969,0.297,0.2992,0.2966,0.2965,0.2965,0.2964,0,0.2046,0.2063,0.2127,0.2141,0.2171,0.223,0.2276,0.2327,0.2423,0.2498,0.2557,0.2647,0.2714,0.2842,0.2877,0.3032,0.3025,0.3038,0.3061,0.2984,0.2983,0.293,0.2885,0.2973,0.2971,0.2969,0.2968,0,0.1995,0.2038,0.2071,0.2135,0.2154,0.2176,0.2273,0.2313,0.2417,0.2525,0.2558,0.2728,0.2902,0.3005,0.3131,0.3142,0.3168,0.3281,0.3233,0.3245,0.321,0.3169,0.3107,0.3009,0.341,0.3413,0.3415,0,0.197,0.1983,0.2052,0.2071,0.2096,0.2145,0.2179,0.2288,0.2354,0.2578,0.2634,0.2859,0.2994,0.3259,0.3338,0.3463,0.3305,0.3452,0.3291,0.3238,0.3208,0.3024,0.2929,0.3288,0.3289,0.329,0.329,0,0.192,0.1946,0.1971,0.2021,0.2053,0.2099,0.2168,0.2231,0.2378,0.2501,0.2705,0.2839,0.3141,0.3272,0.3468,0.3505,0.3289,0.347,0.3396,0.3116,0.2932,0.2839,0.3165,0.3297,0.3296,0.3295,0.3295,0.3295,0.1869,0.1883,0.1924,0.1963,0.2001,0.2048,0.2068,0.2173,0.2292,0.2473,0.2676,0.2862,0.314,0.3412,0.3433,0.3467,0.3367,0.3368,0.3338,0.3166,0.3,0.3388,0.3537,0.3538,0.3538,0.3539,0.3539,0,0.1816,0.1841,0.1869,0.1911,0.1924,0.1976,0.2051,0.2069,0.2178,0.2394,0.2575,0.2898,0.3072,0.3246,0.3431,0.3351,0.3118,0.3263,0.2958,0.2878,0.3234,0.3156,0.3248,0.3249,0.3249,0.3249,0.3249,0.3249,0.1789,0.1798,0.1823,0.1825,0.1853,0.1848,0.1879,0.1929,0.2052,0.2265,0.2462,0.2667,0.3028,0.3304,0.3317,0.3234,0.2942,0.2854,0.2783,0.303,0.3034,0.3038,0.2951,0.2998,0.2998,0.2287,0.2282,0.2278]},{"header":{"parameterUnit":"m.s-1","parameterCategory":2,"la1":30.2991,"la2":30.254,"lo1":-89.0895,"lo2":-89.0444,"dy":0.0017,"dx":0.0017,"nx":28,"ny":28,"refTime":"2023-08-28T21:00:00:Z","depth":"0","parameterNumber":3,"parameterNumberName":"V-component_of_CURRENTS"},"data":[0,0,0,0,0,0,0,0,0,0,0,0,0,0,0,0,0,0,0,0,0,0,0,0,0,0,0,0,0,0,0,0,0,0,0,0,0,0,0,0,0,0,0,0,0,0,0,0,0,0,0,0,0,0,0,0,0,0,0.0069,0.0068,0,-0.0001,-0.0002,-0.0003,-0.0065,-0.0065,-0.0066,-0.0066,-0.0157,-0.0159,-0.0161,0,0,0,0,0,0,0,0,0,0,0,0,0,0.01,0.01,0.0069,0.0068,0.0067,-0.0001,-0.0002,-0.0003,-0.0064,-0.0065,-0.0066,-0.0067,-0.0157,-0.0159,-0.0161,0,0,0,0,0,0,0,0,0,0,0,0,0,0.0063,0.01,0.0069,0.0029,0.0025,-0.0001,-0.0002,-0.0003,-0.0064,-0.0065,-0.0066,-0.0067,-0.0156,-0.0159,-0.0162,-0.0161,0,0,-0.017,-0.0171,0,0,0,0,0,0,0,0,0.0065,0.0062,0.0036,0.0032,0.0027,-0.0024,-0.0024,-0.0057,-0.0064,-0.0032,-0.0066,-0.0067,-0.0113,-0.012,-0.0132,-0.0165,-0.0169,-0.017,-0.0172,-0.0173,-0.0174,0,0,0,0,0,0,0,0.0068,0.0064,0.004,0.0035,0.003,-0.0001,-0.0007,-0.0031,-0.0068,-0.0035,-0.0039,-0.0044,-0.0116,-0.0129,-0.0135,-0.017,-0.017,-0.0173,-0.0174,-0.0176,-0.0195,-0.0194,0,0,0,0,0,0,0.0083,0.0067,0.0042,0.0038,0.0046,-0.0001,-0.0008,-0.0008,-0.0067,-0.0077,-0.0043,-0.0047,-0.0124,-0.0131,-0.0138,-0.0136,-0.0173,-0.0176,-0.0177,-0.0196,-0.0194,-0.0193,0,0,0,0,0,0,0.0084,0.0081,0.0045,0.0051,0.0045,-0.0,0.0,-0.0008,-0.0019,-0.0074,-0.0084,-0.0045,-0.0125,-0.0134,-0.0153,-0.014,-0.0177,-0.018,-0.0197,-0.0195,-0.0194,-0.0134,0,0,0,0,0,0,0.0085,0.0082,0.0089,0.0053,0.0045,0.0043,0.0001,-0.0009,-0.0021,-0.0026,-0.0078,-0.0088,-0.0127,-0.0148,-0.0156,-0.0144,-0.0182,-0.0199,-0.0196,-0.0194,-0.0137,-0.013,-0.0124,0,0,0,0,0,0.0087,0.0106,0.009,0.0086,0.0055,0.0044,0.0038,0.0001,-0.0019,-0.0014,-0.0053,-0.0086,-0.014,-0.015,-0.0159,-0.0148,-0.02,-0.0197,-0.0195,-0.014,-0.0132,-0.0124,0,0,0,0,0,0,0.0127,0.01,0.0082,0.0093,0.0074,0.0034,0.0036,0.0011,-0.0015,-0.0021,-0.0076,-0.0087,-0.0098,-0.0125,-0.0135,-0.0144,-0.0173,-0.0172,-0.0128,-0.0121,-0.0114,-0.014,-0.0184,0,0,0,0,0,0.0139,0.0143,0.0113,0.0122,0.0116,0.0078,0.0068,0.0046,0.0017,0.0004,-0.0033,-0.0067,-0.0092,-0.0108,-0.0133,-0.014,-0.0183,-0.0135,-0.0129,-0.0123,-0.0148,-0.0212,-0.0215,-0.0185,-0.0185,-0.0185,0,0,0.0157,0.0143,0.0145,0.0131,0.0111,0.0106,0.007,0.0066,0.0057,-0.0,-0.0017,-0.0044,-0.0087,-0.0098,-0.0104,-0.0121,-0.0141,-0.012,-0.0115,-0.0144,-0.021,-0.0213,-0.0216,-0.0183,-0.0183,-0.0183,0,0,0.0193,0.0184,0.0194,0.0182,0.0162,0.0139,0.0143,0.0112,0.0093,0.008,0.0035,0.0011,-0.0019,-0.0059,-0.008,-0.0051,-0.0103,-0.0042,-0.0038,-0.0098,-0.0102,-0.0107,-0.0115,-0.0121,-0.0042,-0.0042,-0.0042,0,0.0214,0.0215,0.0198,0.02,0.0188,0.0158,0.016,0.0144,0.011,0.0088,0.0086,0.0018,-0.0008,-0.0051,-0.0039,-0.004,-0.0069,-0.0065,-0.0093,-0.0098,-0.0104,-0.0113,-0.012,-0.0039,-0.0039,-0.004,-0.004,0,0.0247,0.0245,0.0254,0.024,0.0233,0.0234,0.0206,0.0197,0.0175,0.0144,0.0108,0.0069,0.0018,0.0023,-0.0002,-0.0046,-0.0048,-0.0075,-0.0119,-0.0104,-0.0112,-0.0121,-0.0034,-0.0036,-0.0036,-0.0037,0,0,0.0288,0.0278,0.0277,0.0269,0.0249,0.0245,0.0237,0.0206,0.019,0.0161,0.0129,0.0087,0.0054,0.0026,-0.0003,-0.0054,-0.0088,-0.0079,-0.0083,-0.0097,-0.019,-0.0145,-0.015,-0.0127,-0.013,-0.0131,-0.0163,0,0.031,0.032,0.0307,0.0309,0.0305,0.0274,0.0266,0.0236,0.0211,0.0183,0.0125,0.0098,0.006,0.0049,-0.0014,-0.0065,-0.0117,-0.0075,-0.0196,-0.0199,-0.0171,-0.0162,-0.0154,-0.0179,-0.0172,-0.0173,-0.0174,0,0.0331,0.0332,0.034,0.0321,0.0318,0.0318,0.0285,0.0277,0.0228,0.0213,0.0157,0.0116,0.0053,0.0022,-0.01,-0.0071,-0.0139,-0.0184,-0.0187,-0.0187,-0.0173,-0.0202,-0.0196,-0.039,-0.0188,-0.0187,-0.0186,0,0.0346,0.0347,0.0351,0.0347,0.0332,0.0325,0.0316,0.0278,0.0292,0.0233,0.0255,0.0133,0.0138,-0.0007,-0.0079,-0.0104,-0.0199,-0.0244,-0.0273,-0.0267,-0.0309,-0.0304,-0.0523,-0.0365,-0.0365,-0.0365,-0.0365,0,0.0358,0.0359,0.0361,0.0362,0.0376,0.0348,0.0363,0.0338,0.0334,0.0387,0.0278,0.0324,0.0129,0.0068,-0.0068,-0.0164,-0.0192,-0.028,-0.0288,-0.0277,-0.0269,-0.0479,-0.0576,-0.0366,-0.0366,-0.0366,-0.0366,0,0.0368,0.0365,0.0376,0.0375,0.0384,0.0393,0.0437,0.0457,0.0448,0.0522,0.0522,0.0477,0.0417,0.0235,0.0056,-0.0085,-0.0324,-0.026,-0.02,-0.0202,-0.0434,-0.0526,-0.0732,-0.0826,-0.0329,-0.0328,-0.0327,0,0.0372,0.0378,0.0406,0.0439,0.0446,0.0475,0.0513,0.0513,0.0576,0.0657,0.072,0.0682,0.0718,0.0477,0.0189,-0.0058,-0.0253,-0.0227,-0.03,-0.0456,-0.0566,-0.063,-0.0701,-0.0309,-0.0309,-0.0308,-0.0308,0,0.039,0.0402,0.0426,0.0504,0.0552,0.0619,0.0689,0.0768,0.082,0.092,0.1078,0.111,0.0895,0.0677,0.0315,0.0108,-0.0367,-0.0221,-0.0434,-0.0616,-0.0655,-0.0744,-0.0243,-0.0302,-0.0303,-0.0303,-0.0304,-0.0304,0.0423,0.0458,0.0514,0.0594,0.0662,0.0791,0.0898,0.1007,0.1169,0.1374,0.1374,0.1491,0.1095,0.0616,0.0303,-0.0297,-0.0305,-0.0491,-0.0595,-0.0651,-0.0743,-0.0194,-0.0231,-0.0231,-0.0231,-0.0231,-0.0231,0,0.0498,0.0547,0.0613,0.0733,0.0856,0.0867,0.1049,0.1195,0.1449,0.1605,0.1767,0.165,0.1161,0.0606,-0.0188,-0.0605,-0.0798,-0.0846,-0.0993,-0.1055,-0.062,-0.0622,-0.0683,-0.0683,-0.0683,-0.0683,-0.0683,-0.0683,0.0545,0.064,0.0685,0.0905,0.1004,0.121,0.1346,0.1546,0.1707,0.1955,0.2034,0.205,0.1606,0.0193,-0.0804,-0.1049,-0.1347,-0.1376,-0.1538,-0.1297,-0.1274,-0.1252,-0.1282,-0.148,-0.1481,-0.1943,-0.1947,-0.1951]}],[{"header":{"parameterUnit":"m.s-1","parameterCategory":2,"la1":30.2991,"la2":30.254,"lo1":-89.0895,"lo2":-89.0444,"dy":0.0017,"dx":0.0017,"nx":28,"ny":28,"refTime":"2023-08-28T21:00:00:Z","depth":"2","parameterNumber":2,"parameterNumberName":"U-component_of_CURRENTS"},"data":[0,0,0,0,0,0,0,0,0,0,0,0,0,0,0,0,0,0,0,0,0,0,0,0,0,0,0,0,0,0,0,0,0,0,0,0,0,0,0,0,0,0,0,0,0,0,0,0,0,0,0,0,0,0,0,0,0,0,0.2041,0.2042,0,0.2152,0.2154,0.2156,0.2197,0.2196,0.2195,0.2194,0.2155,0.2155,0.2155,0,0,0,0,0,0,0,0,0,0,0,0,0,0.1989,0.199,0.2041,0.2042,0.2043,0.2151,0.2154,0.2156,0.2197,0.2196,0.2194,0.2193,0.2155,0.2155,0.2155,0,0,0,0,0,0,0,0,0,0,0,0,0,0.2055,0.199,0.2041,0.207,0.2073,0.2151,0.2154,0.2157,0.2197,0.2196,0.2194,0.2192,0.2155,0.2155,0.2155,0.2189,0,0,0.2155,0.2155,0,0,0,0,0,0,0,0,0.2051,0.2057,0.2065,0.2068,0.2071,0.2151,0.2121,0.2157,0.2198,0.2159,0.2193,0.2192,0.2136,0.2137,0.2176,0.2187,0.2185,0.2155,0.2155,0.2155,0.2155,0,0,0,0,0,0,0,0.2046,0.2054,0.2094,0.2066,0.207,0.2119,0.2126,0.213,0.2159,0.2162,0.2163,0.2163,0.2137,0.2176,0.2174,0.2185,0.2155,0.2155,0.2155,0.2155,0.2204,0.2206,0,0,0,0,0,0,0.2011,0.2049,0.209,0.2096,0.2047,0.212,0.2129,0.2134,0.2162,0.2164,0.2164,0.2164,0.2177,0.2175,0.2173,0.2195,0.2155,0.2155,0.2155,0.2203,0.2205,0.2206,0,0,0,0,0,0,0.201,0.2014,0.2085,0.2068,0.2079,0.2121,0.2128,0.2137,0.2157,0.2164,0.2164,0.2171,0.2175,0.2173,0.2164,0.2193,0.2155,0.2155,0.2201,0.2203,0.2205,0.2249,0,0,0,0,0,0,0.2008,0.2013,0.202,0.2066,0.2078,0.2114,0.2129,0.214,0.2156,0.2158,0.217,0.2166,0.2174,0.2164,0.2164,0.2192,0.2155,0.22,0.2202,0.2205,0.2246,0.2252,0.2257,0,0,0,0,0,0.2006,0.2013,0.202,0.2025,0.2081,0.2113,0.2126,0.2156,0.2158,0.2169,0.2176,0.2165,0.218,0.2165,0.2164,0.2194,0.2199,0.2202,0.2204,0.2243,0.2251,0.2257,0,0,0,0,0,0,0.1992,0.2019,0.2026,0.2041,0.2064,0.2116,0.2138,0.2148,0.2172,0.2173,0.2172,0.2169,0.2182,0.2176,0.2159,0.2217,0.2192,0.2195,0.2222,0.2229,0.2234,0.2249,0.2155,0,0,0,0,0,0.199,0.2005,0.203,0.2042,0.2055,0.2095,0.2115,0.2132,0.2152,0.2163,0.2172,0.2184,0.2203,0.22,0.2217,0.2234,0.2249,0.2256,0.2262,0.2267,0.228,0.2315,0.2325,0.2216,0.2216,0.2215,0,0,0.1988,0.2004,0.2013,0.2041,0.2072,0.2098,0.2105,0.2133,0.2166,0.2151,0.2197,0.2201,0.2211,0.2245,0.225,0.2236,0.2311,0.2271,0.2275,0.2285,0.2319,0.2329,0.2339,0.2218,0.2217,0.2217,0,0,0.1997,0.2006,0.2029,0.2045,0.2076,0.2101,0.2097,0.2143,0.2178,0.2205,0.222,0.2224,0.2251,0.2274,0.2284,0.2324,0.2342,0.2341,0.2379,0.2413,0.2422,0.243,0.2483,0.2495,0.2341,0.2341,0.2341,0,0.1994,0.2018,0.2039,0.2062,0.2079,0.2093,0.212,0.2164,0.2202,0.2241,0.2214,0.2283,0.2267,0.2327,0.2346,0.2337,0.2375,0.2349,0.242,0.2429,0.2436,0.2488,0.2501,0.2344,0.2344,0.2343,0.2343,0,0.2013,0.2038,0.205,0.2085,0.2112,0.2129,0.2176,0.2217,0.224,0.228,0.234,0.2336,0.2371,0.2376,0.2369,0.2436,0.2454,0.2425,0.2401,0.245,0.2501,0.2515,0.2347,0.2346,0.2346,0.2345,0,0,0.1983,0.2052,0.2051,0.2079,0.2121,0.214,0.2214,0.2283,0.2333,0.2369,0.2434,0.2459,0.2461,0.2474,0.2474,0.2499,0.2571,0.2493,0.2494,0.2545,0.2683,0.2651,0.2662,0.2567,0.2569,0.2571,0.2703,0,0.1988,0.2032,0.207,0.2112,0.2144,0.2192,0.2256,0.2325,0.238,0.2445,0.2476,0.2518,0.2502,0.2509,0.254,0.2571,0.2606,0.254,0.2629,0.2632,0.2596,0.2675,0.2476,0.2574,0.2716,0.2718,0.272,0,0.1986,0.202,0.2071,0.2146,0.2163,0.2192,0.2291,0.2353,0.2465,0.2509,0.2572,0.2593,0.2659,0.2602,0.2707,0.2678,0.2688,0.2699,0.2703,0.2667,0.2624,0.2545,0.2593,0.2742,0.274,0.2738,0.2737,0,0.1946,0.2013,0.2054,0.2071,0.2162,0.221,0.2258,0.2374,0.2456,0.255,0.2602,0.2679,0.2724,0.2759,0.2797,0.2763,0.2904,0.2844,0.2832,0.2831,0.2674,0.2655,0.29,0.29,0.29,0.2899,0.2899,0,0.1927,0.1954,0.2037,0.205,0.2112,0.2187,0.2273,0.2344,0.2466,0.2552,0.2624,0.2693,0.2768,0.2854,0.2853,0.2915,0.2954,0.287,0.2868,0.2686,0.2667,0.2808,0.2796,0.2904,0.2903,0.2902,0.2901,0,0.1887,0.1935,0.1988,0.2073,0.2102,0.2148,0.2275,0.2334,0.246,0.2574,0.2606,0.2755,0.286,0.2939,0.3012,0.2998,0.303,0.3027,0.2826,0.2798,0.2922,0.291,0.3035,0.3035,0.3035,0.3035,0.3035,0,0.1872,0.1899,0.1983,0.2014,0.2052,0.2132,0.2185,0.2314,0.2388,0.2596,0.2637,0.2799,0.287,0.3018,0.3025,0.3065,0.3069,0.2888,0.2757,0.2953,0.2939,0.2927,0.2916,0.2579,0.2575,0.2572,0.257,0,0.185,0.1882,0.1922,0.1987,0.2034,0.2091,0.2175,0.2234,0.239,0.2491,0.2622,0.2699,0.2865,0.2834,0.2921,0.2894,0.2866,0.2828,0.31,0.257,0.2532,0.2515,0.2517,0.2543,0.2546,0.2548,0.2549,0.255,0.183,0.185,0.1905,0.1957,0.201,0.2037,0.2057,0.2148,0.2245,0.2363,0.2491,0.2545,0.2637,0.2659,0.2613,0.26,0.2765,0.2636,0.2641,0.2651,0.2569,0.2532,0.253,0.2532,0.2535,0.2537,0.2538,0,0.1791,0.1819,0.1867,0.1919,0.1935,0.1984,0.2041,0.2036,0.209,0.221,0.2288,0.2162,0.2195,0.2279,0.2233,0.2261,0.2193,0.2162,0.205,0.2082,0.2109,0.1993,0.1805,0.1802,0.1799,0.1797,0,0,0.1776,0.1788,0.1808,0.1824,0.186,0.1846,0.1852,0.1853,0.1918,0.1896,0.1918,0.2087,0.223,0.1972,0.1975,0.1883,0.1951,0.1815,0.2417,0.2319,0.2341,0.2416,0.228,0,0,0,0,0]},{"header":{"parameterUnit":"m.s-1","parameterCategory":2,"la1":30.2991,"la2":30.254,"lo1":-89.0895,"lo2":-89.0444,"dy":0.0017,"dx":0.0017,"nx":28,"ny":28,"refTime":"2023-08-28T21:00:00:Z","depth":"2","parameterNumber":3,"parameterNumberName":"V-component_of_CURRENTS"},"data":[0,0,0,0,0,0,0,0,0,0,0,0,0,0,0,0,0,0,0,0,0,0,0,0,0,0,0,0,0,0,0,0,0,0,0,0,0,0,0,0,0,0,0,0,0,0,0,0,0,0,0,0,0,0,0,0,0,0,-0.0125,-0.0126,0,-0.019,-0.0191,-0.0192,-0.024,-0.0241,-0.0241,-0.0242,-0.0343,-0.0345,-0.0347,0,0,0,0,0,0,0,0,0,0,0,0,0,-0.0074,-0.0075,-0.0125,-0.0126,-0.0127,-0.019,-0.0191,-0.0192,-0.024,-0.0241,-0.0241,-0.0242,-0.0342,-0.0345,-0.0347,0,0,0,0,0,0,0,0,0,0,0,0,0,-0.0113,-0.0075,-0.0125,-0.0158,-0.0162,-0.019,-0.0191,-0.0192,-0.024,-0.0241,-0.0241,-0.0242,-0.0341,-0.0344,-0.0348,-0.0356,0,0,-0.0358,-0.036,0,0,0,0,0,0,0,0,-0.0111,-0.0115,-0.0153,-0.0156,-0.016,-0.0208,-0.021,-0.0249,-0.024,-0.0211,-0.0242,-0.0242,-0.03,-0.0307,-0.0318,-0.0361,-0.0365,-0.0358,-0.0361,-0.0362,-0.0363,0,0,0,0,0,0,0,-0.0108,-0.0113,-0.0151,-0.0154,-0.0158,-0.0181,-0.0187,-0.0218,-0.0252,-0.0213,-0.0217,-0.0224,-0.0303,-0.0314,-0.032,-0.0367,-0.0358,-0.0361,-0.0364,-0.0365,-0.0445,-0.0445,0,0,0,0,0,0,-0.0098,-0.011,-0.0149,-0.0153,-0.0137,-0.0181,-0.0188,-0.0192,-0.0251,-0.026,-0.0223,-0.0226,-0.0308,-0.0316,-0.0324,-0.0337,-0.0362,-0.0365,-0.0367,-0.0445,-0.0445,-0.0445,0,0,0,0,0,0,-0.0096,-0.0101,-0.0146,-0.0133,-0.0141,-0.0181,-0.0186,-0.0193,-0.0206,-0.0258,-0.0268,-0.0229,-0.0309,-0.0319,-0.0353,-0.0341,-0.0367,-0.037,-0.0445,-0.0445,-0.0445,-0.0363,0,0,0,0,0,0,-0.0095,-0.01,-0.0096,-0.0132,-0.0141,-0.0159,-0.0185,-0.0194,-0.0209,-0.0214,-0.0266,-0.0276,-0.031,-0.0347,-0.0356,-0.0347,-0.0373,-0.0445,-0.0445,-0.0445,-0.0366,-0.0361,-0.0356,0,0,0,0,0,-0.0093,-0.0086,-0.0095,-0.01,-0.0135,-0.0158,-0.0165,-0.0196,-0.0209,-0.0211,-0.0249,-0.0275,-0.0355,-0.035,-0.0361,-0.0352,-0.0445,-0.0445,-0.0445,-0.0368,-0.0362,-0.0356,0,0,0,0,0,0,-0.0064,-0.0091,-0.0102,-0.0104,-0.0127,-0.0167,-0.0169,-0.0191,-0.0222,-0.0225,-0.0275,-0.0287,-0.0312,-0.0347,-0.034,-0.0378,-0.0404,-0.0407,-0.0342,-0.0337,-0.0332,-0.0325,-0.0375,0,0,0,0,0,-0.0054,-0.0054,-0.0086,-0.0087,-0.0095,-0.013,-0.0142,-0.0162,-0.0195,-0.0209,-0.0245,-0.0286,-0.032,-0.034,-0.0374,-0.0393,-0.0426,-0.0397,-0.0392,-0.0387,-0.0391,-0.0438,-0.0437,-0.0446,-0.0446,-0.0446,0,0,-0.0043,-0.0057,-0.0058,-0.008,-0.0099,-0.0106,-0.0138,-0.0151,-0.0157,-0.0215,-0.023,-0.0268,-0.0322,-0.0342,-0.0357,-0.037,-0.0396,-0.0387,-0.0383,-0.0389,-0.0438,-0.0437,-0.0436,-0.0446,-0.0446,-0.0446,0,0,-0.0018,-0.0032,-0.0023,-0.0038,-0.006,-0.0083,-0.0084,-0.0118,-0.0131,-0.0153,-0.0194,-0.0229,-0.0277,-0.0313,-0.0339,-0.0331,-0.0368,-0.0337,-0.0307,-0.0352,-0.0351,-0.0351,-0.0363,-0.0365,-0.0336,-0.0336,-0.0336,0,-0.0002,0.0002,-0.0024,-0.002,-0.0028,-0.007,-0.0063,-0.0083,-0.0124,-0.0133,-0.0149,-0.0225,-0.0266,-0.03,-0.0296,-0.0318,-0.0339,-0.032,-0.0344,-0.0345,-0.0346,-0.0359,-0.0362,-0.0332,-0.0332,-0.0333,-0.0333,0,0.0022,0.003,0.0035,0.0026,0.0014,0.0012,-0.0019,-0.003,-0.0052,-0.0078,-0.0111,-0.0168,-0.0218,-0.023,-0.0261,-0.0288,-0.0295,-0.0328,-0.0353,-0.034,-0.0354,-0.0359,-0.0326,-0.0328,-0.0329,-0.033,0,0,0.0054,0.0054,0.0056,0.0068,0.004,0.0035,0.0027,0.0007,0.0003,-0.0038,-0.0049,-0.011,-0.0145,-0.0177,-0.022,-0.0257,-0.0273,-0.0288,-0.0293,-0.0288,-0.0345,-0.0358,-0.0364,-0.0307,-0.0308,-0.0309,-0.034,0,0.0084,0.011,0.0094,0.0117,0.0129,0.0093,0.0088,0.0063,0.0035,0.0015,-0.0046,-0.0075,-0.0123,-0.014,-0.0187,-0.0253,-0.0286,-0.026,-0.037,-0.0372,-0.0377,-0.0371,-0.0339,-0.0366,-0.0345,-0.0345,-0.0346,0,0.0114,0.0129,0.0158,0.0172,0.0172,0.0171,0.0157,0.0147,0.0102,0.0087,0.004,-0.0012,-0.0068,-0.0113,-0.0221,-0.0199,-0.0267,-0.0319,-0.0323,-0.0372,-0.0395,-0.0384,-0.0376,-0.0354,-0.0354,-0.0353,-0.0353,0,0.0151,0.0177,0.0204,0.0206,0.0205,0.0209,0.0201,0.0166,0.0181,0.013,0.0146,0.0043,0.0029,-0.0093,-0.0198,-0.0212,-0.0309,-0.0349,-0.0423,-0.0423,-0.0438,-0.0439,-0.0435,-0.0435,-0.0434,-0.0434,-0.0434,0,0.0189,0.0215,0.0226,0.024,0.0275,0.0251,0.0277,0.0256,0.0248,0.0289,0.0189,0.0209,0.0035,-0.0039,-0.0172,-0.0297,-0.0293,-0.0417,-0.044,-0.0406,-0.0403,-0.0438,-0.0438,-0.0436,-0.0435,-0.0435,-0.0435,0,0.0226,0.0231,0.027,0.0284,0.0295,0.0315,0.0352,0.0374,0.0362,0.0416,0.0415,0.0347,0.0248,0.0076,-0.0101,-0.0229,-0.0377,-0.0423,-0.0353,-0.037,-0.0467,-0.0462,-0.0522,-0.0523,-0.0523,-0.0524,-0.0525,0,0.0246,0.0268,0.031,0.0344,0.0354,0.0391,0.0424,0.0427,0.0478,0.0518,0.0564,0.0486,0.0444,0.0179,-0.0075,-0.0317,-0.0352,-0.0438,-0.0485,-0.0463,-0.048,-0.0474,-0.0469,-0.0456,-0.0456,-0.0456,-0.0456,0,0.0286,0.0297,0.0331,0.0406,0.0453,0.0519,0.0578,0.0642,0.0675,0.0723,0.0778,0.0737,0.0504,0.0257,-0.0071,-0.0238,-0.041,-0.0446,-0.0446,-0.0443,-0.0405,-0.042,-0.0417,-0.0455,-0.0455,-0.0456,-0.0456,-0.0456,0.0318,0.0354,0.0406,0.0475,0.055,0.0651,0.0708,0.0795,0.0886,0.0964,0.0926,0.0879,0.0611,0.0182,-0.0099,-0.0393,-0.0398,-0.0505,-0.0504,-0.0503,-0.0493,-0.046,-0.0516,-0.0517,-0.0517,-0.0517,-0.0518,0,0.0365,0.0408,0.0476,0.0568,0.0658,0.0687,0.0819,0.0871,0.0992,0.1058,0.1071,0.0818,0.0551,0.025,-0.0182,-0.0453,-0.0476,-0.0533,-0.0497,-0.0496,-0.0495,-0.0485,-0.0506,-0.0507,-0.0507,-0.0508,0,0,0.0393,0.046,0.0492,0.0641,0.0717,0.0825,0.09,0.0992,0.1061,0.1102,0.1086,0.1008,0.0653,0.0348,-0.0014,-0.0254,-0.0316,-0.0306,-0.0288,-0.0202,-0.0198,-0.0453,-0.0433,0,0,0,0,0]}],[{"header":{"parameterUnit":"m.s-1","parameterCategory":2,"la1":30.2991,"la2":30.254,"lo1":-89.0895,"lo2":-89.0444,"dy":0.0017,"dx":0.0017,"nx":28,"ny":28,"refTime":"2023-08-28T21:00:00:Z","depth":"4","parameterNumber":2,"parameterNumberName":"U-component_of_CURRENTS"},"data":[0,0,0,0,0,0,0,0,0,0,0,0,0,0,0,0,0,0,0,0,0,0,0,0,0,0,0,0,0,0,0,0,0,0,0,0,0,0,0,0,0,0,0,0,0,0,0,0,0,0,0,0,0,0,0,0,0,0,0.1164,0.1164,0,0.1191,0.1191,0.1191,0.1219,0.122,0.1221,0.1222,0.1298,0.1299,0.1301,0,0,0,0,0,0,0,0,0,0,0,0,0,0.1078,0.1079,0.1163,0.1164,0.1165,0.1191,0.1191,0.1191,0.1219,0.122,0.1221,0.1222,0.1298,0.1299,0.1301,0,0,0,0,0,0,0,0,0,0,0,0,0,0.1107,0.108,0.1163,0.1186,0.1189,0.1191,0.1191,0.1191,0.1219,0.122,0.1221,0.1223,0.1297,0.1299,0.1301,0.1287,0,0,0.1307,0.1307,0,0,0,0,0,0,0,0,0.1105,0.1109,0.1182,0.1184,0.1187,0.1207,0.1189,0.1227,0.1219,0.1202,0.1222,0.1223,0.1275,0.1278,0.1273,0.1291,0.1294,0.1307,0.1308,0.1309,0.1309,0,0,0,0,0,0,0,0.1103,0.1108,0.1169,0.1183,0.1186,0.1175,0.1181,0.1195,0.1228,0.1204,0.1207,0.1218,0.1276,0.1271,0.1275,0.1295,0.1307,0.1308,0.1309,0.131,0.1391,0.1392,0,0,0,0,0,0,0.1112,0.1106,0.1169,0.1171,0.1154,0.1177,0.1182,0.1196,0.1227,0.1234,0.1216,0.1219,0.1267,0.1273,0.1278,0.1352,0.1309,0.131,0.1311,0.139,0.1392,0.1393,0,0,0,0,0,0,0.111,0.1117,0.1168,0.1143,0.1149,0.1178,0.1192,0.1196,0.1225,0.1237,0.1244,0.1246,0.1268,0.1276,0.1326,0.1352,0.1311,0.1313,0.1389,0.1391,0.1392,0.1443,0,0,0,0,0,0,0.1107,0.1116,0.1135,0.1144,0.1151,0.1193,0.1191,0.1195,0.1229,0.1234,0.1264,0.127,0.127,0.1323,0.1328,0.1354,0.1314,0.1388,0.139,0.1392,0.144,0.1446,0.1451,0,0,0,0,0,0.1104,0.112,0.1136,0.1144,0.1175,0.1195,0.1197,0.1217,0.123,0.1247,0.1274,0.1271,0.1338,0.1326,0.1331,0.1358,0.1387,0.1389,0.1392,0.1437,0.1445,0.1451,0,0,0,0,0,0,0.1092,0.1126,0.1143,0.117,0.1195,0.1202,0.1221,0.1235,0.1265,0.1281,0.1289,0.1298,0.1347,0.1347,0.1333,0.1386,0.136,0.1364,0.1393,0.14,0.1406,0.1402,0.1316,0,0,0,0,0,0.11,0.1126,0.1153,0.1179,0.1194,0.1213,0.1228,0.1246,0.1271,0.1286,0.1308,0.1331,0.1352,0.1375,0.1389,0.1424,0.1435,0.1443,0.1448,0.1453,0.1453,0.149,0.1499,0.14,0.14,0.14,0,0,0.1101,0.1126,0.114,0.1179,0.1198,0.1216,0.1225,0.1261,0.1281,0.129,0.1334,0.1355,0.1366,0.1403,0.1425,0.1414,0.1492,0.1456,0.146,0.1457,0.1493,0.1503,0.1512,0.1402,0.1402,0.1401,0,0,0.1104,0.1143,0.1159,0.1186,0.1231,0.1241,0.126,0.129,0.1315,0.1359,0.1368,0.1409,0.1443,0.1454,0.1462,0.1508,0.1519,0.1517,0.1549,0.1585,0.1594,0.1601,0.1651,0.1662,0.1523,0.1523,0.1523,0,0.1107,0.1134,0.1168,0.1192,0.1218,0.1255,0.1277,0.1299,0.1344,0.1372,0.1386,0.1448,0.1461,0.15,0.1517,0.1521,0.1551,0.1523,0.1593,0.1601,0.1607,0.1656,0.1668,0.1526,0.1526,0.1525,0.1525,0,0.1115,0.1148,0.1163,0.1206,0.1235,0.1267,0.1305,0.1342,0.1382,0.1408,0.1475,0.1499,0.154,0.1549,0.155,0.1605,0.1615,0.1595,0.1576,0.162,0.1669,0.1681,0.153,0.1529,0.1528,0.1527,0,0,0.1093,0.1155,0.1165,0.119,0.1253,0.1273,0.132,0.1369,0.1407,0.1464,0.1519,0.1559,0.1594,0.1605,0.1619,0.1648,0.1729,0.1651,0.1651,0.1701,0.1835,0.1731,0.1734,0.173,0.1732,0.1733,0.1858,0,0.1092,0.1133,0.1169,0.1211,0.1235,0.1292,0.133,0.1386,0.1439,0.1501,0.1552,0.1611,0.1609,0.1649,0.168,0.1719,0.1759,0.1699,0.1782,0.1785,0.1688,0.1743,0.1739,0.1866,0.1869,0.1871,0.1872,0,0.1085,0.1117,0.1156,0.1222,0.124,0.1275,0.1355,0.1396,0.1486,0.1531,0.1605,0.1657,0.1735,0.1717,0.1816,0.1786,0.1817,0.1837,0.1842,0.173,0.1702,0.1807,0.1893,0.1891,0.189,0.1888,0.1887,0,0.1044,0.1109,0.1141,0.1166,0.124,0.1281,0.1331,0.1415,0.1466,0.1567,0.1634,0.1715,0.1792,0.1836,0.1902,0.1876,0.2001,0.1965,0.1901,0.1896,0.193,0.192,0.2024,0.2024,0.2023,0.2023,0.2023,0,0.1024,0.1052,0.1131,0.1148,0.1201,0.1269,0.1337,0.1393,0.1494,0.1563,0.1661,0.1733,0.1829,0.1919,0.194,0.1969,0.2042,0.1918,0.1918,0.1951,0.1942,0.194,0.1928,0.2028,0.2027,0.2026,0.2025,0,0.0971,0.1022,0.1059,0.1145,0.1181,0.1222,0.1341,0.1389,0.1495,0.1594,0.1643,0.1788,0.1902,0.1986,0.2073,0.2023,0.2048,0.2036,0.2099,0.21,0.1913,0.1903,0.1975,0.1972,0.197,0.1968,0.1966,0,0.0935,0.0953,0.1047,0.1075,0.112,0.1199,0.1257,0.1371,0.1424,0.1612,0.1655,0.1826,0.1911,0.1971,0.2038,0.2086,0.2053,0.2054,0.1941,0.1913,0.1907,0.19,0.1894,0.1963,0.1962,0.1962,0.1961,0,0.087,0.092,0.0958,0.1019,0.1081,0.1146,0.1241,0.1276,0.1416,0.1533,0.164,0.1721,0.1849,0.1914,0.1976,0.1991,0.2039,0.2029,0.2033,0.1927,0.1899,0.1894,0.189,0.1953,0.1954,0.1955,0.1956,0,0.0825,0.084,0.0903,0.0954,0.1025,0.1081,0.1139,0.1225,0.13,0.1499,0.153,0.1707,0.1834,0.1869,0.1918,0.1937,0.1896,0.1812,0.1826,0.1836,0.1728,0.1668,0.1662,0,0,0,0,0,0.0782,0.0802,0.0835,0.089,0.0959,0.1013,0.1122,0.1184,0.1328,0.1368,0.1443,0.1553,0.1653,0.1734,0.1728,0.1851,0.1897,0.1833,0.1805,0.191,0.1919,0.1802,0,0,0,0,0,0,0.0754,0.0786,0.0811,0.0833,0.0864,0.094,0.1014,0.1112,0.1134,0.1282,0.1347,0.1455,0.1575,0.1649,0.1699,0.1722,0.1672,0.1929,0.1925,0.1904,0.1913,0.192,0.1803,0,0,0,0,0]},{"header":{"parameterUnit":"m.s-1","parameterCategory":2,"la1":30.2991,"la2":30.254,"lo1":-89.0895,"lo2":-89.0444,"dy":0.0017,"dx":0.0017,"nx":28,"ny":28,"refTime":"2023-08-28T21:00:00:Z","depth":"4","parameterNumber":3,"parameterNumberName":"V-component_of_CURRENTS"},"data":[0,0,0,0,0,0,0,0,0,0,0,0,0,0,0,0,0,0,0,0,0,0,0,0,0,0,0,0,0,0,0,0,0,0,0,0,0,0,0,0,0,0,0,0,0,0,0,0,0,0,0,0,0,0,0,0,0,0,-0.0082,-0.0082,0,-0.0134,-0.0135,-0.0136,-0.0164,-0.0164,-0.0164,-0.0164,-0.0251,-0.0254,-0.0256,0,0,0,0,0,0,0,0,0,0,0,0,0,-0.0037,-0.0037,-0.0082,-0.0082,-0.0083,-0.0134,-0.0135,-0.0136,-0.0164,-0.0164,-0.0164,-0.0164,-0.0251,-0.0253,-0.0256,0,0,0,0,0,0,0,0,0,0,0,0,0,-0.007,-0.0037,-0.0081,-0.0103,-0.0105,-0.0134,-0.0135,-0.0136,-0.0164,-0.0164,-0.0164,-0.0164,-0.025,-0.0253,-0.0257,-0.0278,0,0,-0.0267,-0.0269,0,0,0,0,0,0,0,0,-0.0068,-0.0072,-0.0099,-0.0101,-0.0104,-0.0142,-0.0151,-0.0185,-0.0164,-0.0143,-0.0164,-0.0164,-0.0217,-0.0224,-0.0234,-0.0282,-0.0286,-0.0268,-0.027,-0.0271,-0.0272,0,0,0,0,0,0,0,-0.0066,-0.007,-0.0103,-0.0099,-0.0102,-0.012,-0.0124,-0.0158,-0.0181,-0.0144,-0.0146,-0.0151,-0.0219,-0.0231,-0.0237,-0.0287,-0.0267,-0.0271,-0.0273,-0.0274,-0.0376,-0.0377,0,0,0,0,0,0,-0.0056,-0.0068,-0.0102,-0.0105,-0.0085,-0.0121,-0.0126,-0.013,-0.018,-0.0187,-0.0151,-0.0152,-0.0225,-0.0232,-0.024,-0.0266,-0.0271,-0.0274,-0.0276,-0.0376,-0.0376,-0.0377,0,0,0,0,0,0,-0.0055,-0.0059,-0.0099,-0.0087,-0.0093,-0.0121,-0.0126,-0.0131,-0.0145,-0.0184,-0.0192,-0.0159,-0.0225,-0.0235,-0.0272,-0.027,-0.0276,-0.0279,-0.0375,-0.0376,-0.0377,-0.032,0,0,0,0,0,0,-0.0053,-0.0058,-0.0059,-0.0086,-0.0093,-0.0116,-0.0126,-0.0132,-0.0147,-0.0149,-0.0194,-0.0202,-0.0226,-0.0267,-0.0275,-0.0275,-0.0282,-0.0374,-0.0375,-0.0376,-0.0321,-0.0319,-0.0317,0,0,0,0,0,-0.0052,-0.0055,-0.0059,-0.0063,-0.0094,-0.0116,-0.0121,-0.0142,-0.0148,-0.0154,-0.0185,-0.0201,-0.028,-0.027,-0.028,-0.028,-0.0374,-0.0375,-0.0376,-0.0322,-0.0319,-0.0317,0,0,0,0,0,0,-0.0041,-0.0059,-0.0064,-0.0074,-0.0091,-0.012,-0.0128,-0.0141,-0.017,-0.0174,-0.0209,-0.0219,-0.0251,-0.0279,-0.0267,-0.0316,-0.033,-0.0333,-0.0285,-0.0283,-0.0281,-0.0239,-0.0285,0,0,0,0,0,-0.0037,-0.0042,-0.0063,-0.0071,-0.0078,-0.0102,-0.0114,-0.0127,-0.0155,-0.0167,-0.0198,-0.0234,-0.0266,-0.0284,-0.0318,-0.0345,-0.0359,-0.0354,-0.0352,-0.035,-0.0325,-0.0343,-0.034,-0.0382,-0.0382,-0.0382,0,0,-0.0035,-0.0046,-0.0049,-0.0069,-0.0084,-0.0084,-0.011,-0.0126,-0.0124,-0.0173,-0.0188,-0.023,-0.0273,-0.03,-0.0317,-0.0322,-0.0351,-0.0351,-0.0349,-0.0324,-0.0344,-0.034,-0.0336,-0.0383,-0.0382,-0.0382,0,0,-0.0027,-0.0043,-0.0038,-0.0048,-0.0066,-0.0079,-0.0081,-0.0109,-0.012,-0.0143,-0.0176,-0.0212,-0.0265,-0.0288,-0.0307,-0.0317,-0.0341,-0.0338,-0.0289,-0.0309,-0.0304,-0.0301,-0.0329,-0.0328,-0.0335,-0.0334,-0.0334,0,-0.0023,-0.0014,-0.0042,-0.0037,-0.0034,-0.0071,-0.0057,-0.0076,-0.0112,-0.011,-0.0141,-0.0204,-0.0252,-0.0265,-0.0273,-0.0309,-0.0325,-0.0291,-0.0302,-0.0299,-0.0296,-0.0326,-0.0326,-0.0332,-0.0332,-0.0332,-0.0333,0,-0.0005,0.0005,0.0005,0.0008,0.0001,0.0004,-0.0017,-0.0026,-0.0047,-0.0061,-0.0085,-0.0152,-0.0181,-0.0214,-0.0248,-0.0253,-0.0274,-0.0297,-0.0298,-0.0287,-0.0321,-0.0322,-0.0328,-0.0329,-0.033,-0.033,0,0,0.0007,0.0019,0.0022,0.0047,0.0032,0.0034,0.0037,0.0041,0.0059,0.0006,0.0023,-0.0051,-0.0082,-0.0106,-0.0161,-0.0185,-0.0203,-0.0226,-0.0229,-0.0236,-0.0247,-0.0271,-0.0275,-0.0223,-0.0222,-0.0222,-0.0284,0,0.0038,0.0076,0.0068,0.0109,0.0132,0.0112,0.0126,0.012,0.0101,0.0101,0.0042,0.0021,-0.0042,-0.0064,-0.0093,-0.018,-0.0199,-0.0183,-0.0271,-0.0274,-0.0281,-0.0274,-0.022,-0.0284,-0.0284,-0.0285,-0.0285,0,0.0069,0.0096,0.0145,0.0189,0.0197,0.0209,0.0239,0.0245,0.0232,0.0218,0.0192,0.0138,0.0087,0.0029,-0.0075,-0.0062,-0.0136,-0.0202,-0.0206,-0.024,-0.0298,-0.0297,-0.0286,-0.0286,-0.0286,-0.0286,-0.0286,0,0.0113,0.0156,0.0205,0.0216,0.0247,0.0269,0.0283,0.0284,0.0299,0.0289,0.0286,0.0229,0.0178,0.0096,-0.0058,-0.0061,-0.0175,-0.0201,-0.0284,-0.0288,-0.0271,-0.0274,-0.0244,-0.0244,-0.0244,-0.0244,-0.0244,0,0.0159,0.02,0.0232,0.0259,0.0322,0.0322,0.0377,0.0382,0.0387,0.0405,0.0348,0.0328,0.0192,0.0097,-0.0019,-0.0161,-0.0147,-0.0261,-0.0297,-0.0251,-0.0251,-0.0272,-0.0275,-0.0246,-0.0246,-0.0245,-0.0245,0,0.0197,0.0219,0.0279,0.0325,0.0343,0.0385,0.0428,0.0459,0.0462,0.0478,0.0472,0.0392,0.0267,0.0126,-0.0034,-0.0125,-0.0252,-0.0301,-0.0245,-0.0279,-0.0357,-0.0356,-0.0381,-0.0382,-0.0383,-0.0384,-0.0385,0,0.0225,0.0257,0.0321,0.0353,0.0374,0.0433,0.0466,0.0492,0.0515,0.0506,0.0506,0.0403,0.033,0.0101,-0.0053,-0.0254,-0.0288,-0.0345,-0.0337,-0.0335,-0.0367,-0.0365,-0.0363,-0.0386,-0.0386,-0.0387,-0.0387,0,0.0265,0.0279,0.032,0.0383,0.0427,0.0489,0.0534,0.056,0.0578,0.0583,0.0535,0.0419,0.0278,0.0098,-0.0064,-0.021,-0.0301,-0.0356,-0.0354,-0.0347,-0.0342,-0.0372,-0.0369,-0.039,-0.039,-0.039,-0.0389,0,0.0281,0.0308,0.0344,0.0399,0.0458,0.0509,0.0548,0.0567,0.0592,0.0583,0.0559,0.042,0.0339,0.0119,-0.0033,-0.0178,-0.0211,-0.0249,-0.0253,-0.0251,-0.0203,-0.0176,-0.0189,0,0,0,0,0,0.0284,0.0299,0.0353,0.0404,0.0464,0.0494,0.0568,0.0598,0.0621,0.0596,0.0584,0.0456,0.0236,0.0139,-0.0008,-0.0066,-0.0248,-0.0244,-0.0296,-0.041,-0.0406,-0.0373,0,0,0,0,0,0,0.0277,0.0317,0.034,0.039,0.0421,0.0483,0.0532,0.0558,0.0552,0.0559,0.0448,0.0405,0.0192,0.0307,-0.0021,-0.0065,-0.0118,-0.0343,-0.0347,-0.0412,-0.0408,-0.0405,-0.037,0,0,0,0,0]}]]